IRNSS-1G (41469 NORAD) Tracking and Keplerian Element Data

This shows tracking and keplerian element data for the satellite.

Feedback or suggestion? Click here.




ElementValue
Catalog41469
NameIRNSS-1G
Epoch Orbit1980
Epoch Day261.90915168
Epoch Year2021
RAAN183.0575
Inclination1.9296
Eccentricity0.0004725
Argument of Perigee305.7435
Mean Anonmoly325.9233
Mean Motion1.00265021
Decay Rate-3.61E-06
L11 41469U 16027A 21261.90915168 -.00000361 00000-0 00000-0 0 9992
L22 41469 1.9296 183.0575 0004725 305.7435 325.9233 1.00265021 19809

Live tracking and technical data element details for IRNSS-1G (NORAD 41469). IRNSS-1G can be tracked NOW for your location showing map with azimuth and elevation plus other details from your city location.

Track the satellite on the map from your city or location and see movement details for azimuth, elevation, latitude, longitude, range, height, and movement on the map or in text.







IsCatalogInMostPopularTable: catalog: 41469, numindb: 522
Update: records affected: 1



GetName: 41469 IRNSS-1G

Hit Count: updated at: Sat, 25 Sep 2021 23:37:03 GMT